SCP
0 0 0 0 0 0 0 0 0 0 0 0 0 0 0 0 0 0 0 0 0 0 0 0 0 0 0 0 0 0 0 0 0 0 0 0 0 0 0 0 0 0 0 0
0 0 0 0 0 0 0 0 0 0 0 0 0 0 0 0 0 0 0 0 0 0 0 0 0 0 0 0 0 0 0 0 0 0 0 0 0 0 0 0 0 0 0 0
0 0 0 0 0 0 0 0 0 0 0 0 0 0 0 0 0 0 0 0 0 0 0 0 0 0 0 0 0 0 0 0 0 0 0 0 0 0 0 0 0 0 0 0
0 0 0 0 0 0 0 0 0 0 0 0 0 0 -0 0 0 0 0 0 0 0 0 0 0 0 0 0 0 0 0 0 0 0 0 0 0 0 0 0 0 0 0 0
0 0 0 0 0 0 0 0 0 0 0 0 0 0 -0 0 0 0 0 0 0 0 0 0 0 0 0 0 0 0 0 0 0 0 0 0 0 0 0 0 0 0 0 0
0 0 0 0 0 0 0 0 0 0 0 0 0 0 -0 0 0 0 0 0 0 0 0 0 0 0 0 0 0 0 0 0 0 0 0 0 0 0 0 0 0 0 0 0
0 0 0 0 0 0 0 0 0 0 0 0 0 0 0 0 0 0 0 0 0 0 0 0 0 0 0 0 0 0 0 0 0 0 0 0 0 0 0 0 0 0 0 0
0 0 0 0 0 0 0 0 0 0 0 0 0 0 0 0 0 0 0 0 0 0 0 0 0 0 0 0 0 0 0 0 0 0 0 0 0 0 0 0 0 0 0 0
-0 0 0 -0 0 0 0 0 0 0 0 0 0 0 0 0 0 0 0 0 -0 -0 -0 0 0 0 0 0 0 0 0 0 0 0 0 0 0 0 0 0 0 0 0 0
0 0 -0 -0 -0 0 0 0 0 0 0 0 0 0 0 0 0 0 0 0 0 -0 0 0 0 0 0 0 0 0 0 0 0 0 0 0 0 0 0 0 0 0 0 0
0 0 0 0 -0 -0 -0 0 0 0 0 0 0 0 0 0 0 0 0 -0 -0 -0 -0 0 0 0 0 0 0 0 0 0 0 0 0 0 0 0 0 0 0 0 0 0
0 0 0 0 0 0 0 0 0 0 0 0 0 0 0 0 0 0 0 0 0 0 0 0 0 0 0 0 0 0 0 0 0 0 0 0 0 0 0 0 0 0 0 0
0 0 0 0 0 0 0 0 0 0 0 0 0 0 0 0 0 0 0 -0 -0 0 0 0 0 0 0 0 0 0 0 0 0 0 0 0 0 0 0 0 0 0 0 0
0 0 0 0 0 0 0 0 0 0 0 0 0 0 0 0 0 0 0 0 -0 -0 -0 0 0 0 0 -0 0 0 -0 0 0 0 0 0 0 0 0 0 0 0 0 0
0 0 0 0 0 0 0 0 0 0 0 0 0 0 0 0 0 0 0 0 0 -0 -0 -0 0 0 0 0 0 -0 -0 0 0 0 0 0 0 0 0 0 0 0 0 0
0 0 0 0 0 0 0 0 0 0 0 0 0 0 0 0 0 0 0 0 0 0 0 -0 -0 0 0 0 0 0 0 0 0 0 0 0 0 0 0 0 0 0 0 0
0 0 0 0 0 0 0 -0 0 0 0 0 0 0 0 0 0 0 0 -0 0 0 0 -0 -0 -0 0 0 0 0 0 0 0 0 0 0 0 0 0 0 0 0 0 0
0 0 0 0 0 0 0 0 0 0 0 0 0 0 0 0 0 0 -0 0 0 0 0 -0 -0 -0 0 0 0 0 0 0 0 0 0 0 0 0 0 0 0 0 0 0
0 0 0 0 0 0 0 0 0 0 0 0 0 0 0 0 -0 -0 0 0 0 0 0 0 0 0 0 0 0 0 0 0 0 0 0 0 0 0 0 0 0 0 0 0
0 0 0 0 0 0 0 0 0 0 0 0 0 0 0 0 -0 -0 0 0 0 0 0 0 0 0 0 0 0 0 0 0 0 0 0 0 0 0 0 0 0 0 0 0
0 0 0 0 0 0 0 0 0 0 0 0 0 0 0 0 -0 -0 -0 -0 -0 0 0 0 0 0 0 0 0 0 0 0 0 0 0 0 0 0 0 0 0 0 0 0
0 0 0 0 0 0 0 0 0 0 0 0 0 0 0 0 0 -0 -0 -0 0 0 0 0 0 0 0 0 0 0 0 0 0 0 0 0 0 0 0 0 0 0 0 0
0 0 0 0 0 0 0 0 0 0 0 0 0 0 0 0 0 0 -0 -0 -0 -0 -0 0 0 0 0 0 -0 0 0 0 0 0 0 0 0 0 0 0 0 0 0 0
0 0 0 0 0 0 0 0 0 0 0 0 0 0 0 0 0 -0 -0 -0 -0 -0 0 0 0 0 0 0 0 0 0 0 0 0 0 0 0 0 0 0 0 0 0 0
0 0 0 0 0 0 0 0 0 0 0 0 0 0 0 0 0 -0 -0 -0 -0 -0 -0 0 0 0 0 0 0 0 0 0 0 0 0 0 0 0 0 0 0 0 0 0
0 0 0 0 0 0 0 0 0 0 0 0 0 0 0 0 -0 -0 -0 -0 -0 0 0 0 0 0 0 0 0 0 0 0 0 0 0 0 0 0 0 0 0 0 0 0
Wind_Speed_500mb
14 17 28 28 37 37 6 12 15 2 10 4 15 29 18 35 42 32 51 65 77 70 60 59 53 59 86 94 99 91 85 85 91 98 98 96 96 92 89 85 78 74 67 60
8 31 16 14 25 22 24 20 34 17 14 10 29 42 17 15 18 44 50 59 58 61 60 61 57 52 65 92 108 102 95 93 93 98 100 103 98 95 91 87 83 79 77 68
19 14 4 20 18 21 27 33 26 26 11 16 14 37 32 21 31 54 64 63 68 72 75 75 70 68 59 76 105 111 105 101 97 97 101 99 94 91 94 97 93 89 84 80
23 32 33 30 26 20 29 18 30 29 9 11 12 21 16 7 16 17 44 60 69 81 91 95 98 92 83 67 76 101 112 110 103 101 103 104 104 110 112 107 103 95 93 88
9 4 3 19 26 24 18 15 15 11 10 7 16 7 12 1 13 18 25 62 65 69 73 74 77 79 93 88 71 82 105 119 112 110 107 104 103 104 105 109 107 103 101 99
40 38 16 8 17 12 12 11 13 8 5 15 32 12 38 23 25 19 21 54 58 63 55 43 55 70 75 83 88 74 103 116 118 110 108 109 105 105 99 106 108 111 105 105
11 8 16 18 30 40 15 9 5 5 9 25 18 18 49 10 14 21 32 45 53 50 46 52 35 32 46 59 73 79 87 108 115 115 111 108 108 106 106 102 102 107 109 110
4 9 7 10 6 10 11 16 9 13 14 20 16 21 27 9 25 53 60 64 67 66 61 47 38 31 32 35 57 75 86 99 109 116 116 110 106 109 108 108 101 102 109 111
6 7 4 10 9 4 9 8 17 25 33 14 10 23 22 25 20 16 35 50 61 76 76 61 60 59 52 49 48 58 87 96 97 100 113 115 110 111 109 105 108 107 103 104
7 4 10 8 4 5 10 8 7 9 12 26 12 21 19 15 24 24 21 28 58 63 71 68 57 52 40 43 45 44 69 93 99 102 111 116 117 114 110 101 106 111 108 104
8 7 8 4 7 9 4 8 9 9 9 22 31 24 17 18 20 30 35 37 51 64 73 71 57 53 45 41 45 50 53 64 88 100 105 113 116 114 108 105 100 107 105 104
15 9 7 18 18 10 19 10 6 3 8 7 7 14 15 25 30 17 29 52 71 79 82 78 49 44 42 38 38 47 52 59 67 82 91 103 107 108 106 104 100 97 104 106
11 4 4 16 11 3 4 4 10 9 6 13 9 14 18 34 23 46 56 51 61 74 80 75 58 67 36 0 7 23 45 52 61 67 80 92 97 100 102 100 98 89 100 102
25 11 15 15 16 5 9 4 10 6 8 20 22 39 56 35 25 30 54 78 70 70 71 72 75 64 56 40 17 18 20 35 49 53 68 81 87 89 92 94 96 91 92 102
17 13 17 33 32 8 20 28 30 25 32 20 34 29 50 44 40 32 56 73 73 72 70 72 74 78 57 42 33 26 24 23 31 45 54 68 74 79 83 89 92 90 87 95
10 10 18 20 19 19 26 39 40 35 34 29 40 39 42 55 54 40 38 55 70 84 70 72 77 81 66 48 45 28 27 25 25 30 42 53 63 70 77 81 87 88 85 87
10 9 12 25 13 13 10 53 33 34 30 17 24 34 38 47 32 40 39 46 61 83 92 75 79 87 82 67 65 49 38 35 41 45 43 45 54 65 72 75 82 83 83 83
12 15 8 9 6 12 33 4 15 26 29 21 31 37 35 44 41 36 46 53 50 62 72 79 74 79 87 78 58 54 55 51 47 50 54 52 53 59 65 71 77 79 80 83
33 14 8 8 16 13 29 33 12 13 22 30 19 25 31 37 34 23 52 48 63 73 75 79 94 74 75 68 58 64 60 57 56 64 64 61 56 58 62 68 75 79 78 81
33 33 20 7 10 21 45 43 22 9 13 44 19 16 16 14 21 20 73 53 71 77 66 73 88 67 71 78 79 81 82 78 84 74 66 60 59 62 64 64 67 75 77 78
9 18 34 27 20 14 35 13 18 10 37 8 21 22 24 17 26 56 77 68 54 65 86 84 87 86 69 56 57 65 65 69 63 61 62 62 61 64 64 61 63 67 76 74
18 14 11 13 17 29 33 9 19 38 29 30 27 32 39 52 57 63 67 62 70 72 89 89 89 94 74 56 53 67 73 68 63 63 64 64 64 64 64 62 61 64 70 72
7 17 11 16 13 10 32 40 64 56 47 46 47 63 51 61 59 61 66 63 72 75 94 89 91 96 75 61 50 64 75 73 72 71 68 64 62 61 63 63 62 64 67 71
7 7 12 17 23 22 38 50 59 76 55 65 69 73 67 63 60 68 67 76 78 82 95 88 92 93 81 58 43 54 54 58 61 64 66 64 63 63 64 63 63 64 68 71
11 12 10 12 27 28 49 64 85 76 64 69 69 63 77 72 70 74 76 77 70 80 84 97 93 88 78 58 48 49 50 54 57 56 58 59 59 61 63 63 63 64 64 68
9 11 9 19 35 31 41 72 57 43 59 73 75 82 82 63 72 71 78 69 68 87 98 100 94 78 74 55 48 51 41 45 53 58 59 57 58 59 59 59 59 57 54 54
Wind_Direction_500mb
197 214 219 199 208 233 228 252 247 237 218 295 246 269 239 254 267 261 265 254 254 252 255 260 266 257 242 237 230 229 226 227 222 220 221 225 227 229 230 231 228 225 224 228
219 240 231 244 237 245 251 260 261 278 251 242 274 274 256 224 244 258 265 265 259 262 262 261 264 261 242 237 232 230 229 227 226 224 225 225 228 229 233 234 230 228 226 227
225 233 189 223 243 238 241 238 257 251 269 237 272 278 274 256 235 253 259 260 264 265 265 262 258 258 256 240 233 231 230 229 228 228 224 222 226 226 230 234 230 230 228 228
250 247 247 251 234 217 254 221 244 252 234 253 195 278 235 261 256 238 248 259 256 259 260 259 260 257 257 250 239 235 233 229 229 227 218 221 219 219 227 233 233 230 229 229
234 343 1 248 256 221 251 302 256 244 241 222 242 251 306 220 270 266 257 260 264 266 265 265 264 259 254 254 247 240 236 229 227 225 224 224 219 225 229 229 233 234 232 230
255 292 299 243 298 295 319 311 302 236 175 243 245 198 271 247 249 263 263 262 268 265 274 291 275 264 260 251 250 243 233 231 228 227 226 227 227 227 222 231 232 236 233 229
304 313 293 260 284 287 267 272 282 256 206 243 174 194 248 278 274 246 262 266 275 284 268 291 274 282 251 245 245 239 235 233 229 229 229 229 231 231 227 226 228 231 233 231
102 323 41 321 2 328 304 222 230 211 224 260 171 227 238 227 261 254 263 275 286 289 293 279 289 264 266 265 245 237 237 234 231 232 232 231 233 233 233 228 228 230 233 235
156 260 275 224 171 192 328 233 251 253 269 277 233 274 288 287 279 274 283 295 301 299 305 302 300 297 268 271 260 247 239 237 238 238 237 234 233 233 234 234 234 233 235 236
230 289 229 269 258 235 205 344 298 216 239 245 235 253 250 312 310 295 286 301 309 312 317 322 308 298 272 261 256 255 245 240 242 240 237 236 235 236 236 238 234 234 236 237
145 143 273 332 207 215 206 238 251 332 262 241 252 257 239 220 261 289 305 315 325 332 336 324 308 286 286 278 257 249 247 242 240 239 239 237 236 234 235 237 237 237 238 237
204 168 221 231 256 256 243 241 163 188 344 292 268 269 279 9 344 337 321 321 320 319 321 340 318 289 270 260 251 245 240 238 243 242 242 241 239 237 234 236 236 237 239 241
190 260 348 329 326 136 146 206 143 123 202 268 294 278 320 328 317 318 315 315 316 315 312 314 312 314 302 232 304 266 252 247 245 243 242 241 239 236 236 237 237 238 238 241
185 178 176 218 223 86 303 241 287 262 239 267 257 279 293 299 293 303 307 306 304 300 304 309 305 304 305 270 293 306 281 255 248 243 243 243 242 240 240 240 240 240 238 240
167 223 218 240 249 248 266 275 273 243 241 243 263 255 274 286 294 296 288 288 294 300 299 305 308 302 318 267 286 299 293 271 259 246 241 242 243 243 242 240 241 240 242 239
195 233 224 259 248 235 257 263 252 260 257 256 257 268 262 276 288 280 277 287 299 296 292 301 305 301 294 284 282 289 299 286 272 267 257 248 245 243 241 240 239 239 243 239
202 208 198 248 176 216 332 251 243 248 251 241 264 267 275 281 283 289 298 296 285 285 290 295 300 295 290 277 290 270 290 288 288 279 268 261 250 247 243 240 238 240 239 240
199 210 180 205 117 202 239 214 216 225 245 239 243 256 272 278 299 319 315 292 300 306 304 307 307 291 292 288 269 265 271 275 277 286 277 268 257 249 245 240 239 238 239 238
209 199 216 198 211 291 291 270 169 180 275 247 245 256 269 281 294 296 306 294 293 301 314 313 319 294 282 278 275 277 269 269 273 276 273 266 261 253 247 240 238 236 238 238
212 219 223 168 207 208 247 272 206 156 268 261 205 224 257 279 298 303 301 309 305 310 310 308 316 324 294 278 264 272 271 269 268 271 267 268 268 257 248 244 239 237 236 239
194 210 222 221 233 263 253 160 146 138 250 143 204 252 283 280 281 287 297 308 304 303 303 309 313 315 310 295 277 273 276 267 263 267 264 259 260 258 251 247 242 239 237 236
171 170 205 223 234 245 248 94 195 246 262 260 254 275 278 279 287 281 290 295 296 297 304 309 310 312 313 298 273 271 269 266 263 259 262 257 252 252 246 244 243 238 237 232
207 195 195 186 215 231 248 228 252 259 253 255 275 286 280 282 277 276 286 294 294 296 303 307 308 309 310 299 278 270 259 261 261 253 255 254 251 247 243 243 239 234 234 231
258 175 222 227 239 241 252 264 264 266 259 273 278 284 283 275 280 280 286 293 293 295 302 306 307 304 304 302 293 277 261 252 252 250 249 247 245 242 241 239 237 234 233 230
197 158 205 249 258 261 258 256 259 265 272 277 277 277 283 278 276 281 285 287 289 298 300 299 301 298 297 298 294 283 258 250 250 246 243 242 242 242 238 235 236 234 237 239
166 184 211 247 253 241 260 267 272 274 277 278 278 282 280 275 278 281 286 284 285 291 294 295 295 291 289 289 287 285 266 251 247 245 243 241 239 235 232 231 231 232 238 242
Wind_Speed_850mb
14 17 28 28 37 37 6 12 15 2 10 4 15 29 18 35 42 32 51 65 77 70 60 59 53 59 86 94 99 91 85 85 91 98 98 96 96 92 89 85 78 74 67 60
8 31 16 14 25 22 24 20 34 17 14 10 29 42 17 15 18 44 50 59 58 61 60 61 57 52 65 92 108 102 95 93 93 98 100 103 98 95 91 87 83 79 77 68
19 14 4 20 18 21 27 33 26 26 11 16 14 37 32 21 31 54 64 63 68 72 75 75 70 68 59 76 105 111 105 101 97 97 101 99 94 91 94 97 93 89 84 80
23 32 33 30 26 20 29 18 30 29 9 11 12 21 16 7 16 17 44 60 69 81 91 95 98 92 83 67 76 101 112 110 103 101 103 104 104 110 112 107 103 95 93 88
9 4 3 19 26 24 18 15 15 11 10 7 16 7 12 1 13 18 25 62 65 69 73 74 77 79 93 88 71 82 105 119 112 110 107 104 103 104 105 109 107 103 101 99
40 38 16 8 17 12 12 11 13 8 5 15 32 12 38 23 25 19 21 54 58 63 55 43 55 70 75 83 88 74 103 116 118 110 108 109 105 105 99 106 108 111 105 105
11 8 16 18 30 40 15 9 5 5 9 25 18 18 49 10 14 21 32 45 53 50 46 52 35 32 46 59 73 79 87 108 115 115 111 108 108 106 106 102 102 107 109 110
4 9 7 10 6 10 11 16 9 13 14 20 16 21 27 9 25 53 60 64 67 66 61 47 38 31 32 35 57 75 86 99 109 116 116 110 106 109 108 108 101 102 109 111
6 7 4 10 9 4 9 8 17 25 33 14 10 23 22 25 20 16 35 50 61 76 76 61 60 59 52 49 48 58 87 96 97 100 113 115 110 111 109 105 108 107 103 104
7 4 10 8 4 5 10 8 7 9 12 26 12 21 19 15 24 24 21 28 58 63 71 68 57 52 40 43 45 44 69 93 99 102 111 116 117 114 110 101 106 111 108 104
8 7 8 4 7 9 4 8 9 9 9 22 31 24 17 18 20 30 35 37 51 64 73 71 57 53 45 41 45 50 53 64 88 100 105 113 116 114 108 105 100 107 105 104
15 9 7 18 18 10 19 10 6 3 8 7 7 14 15 25 30 17 29 52 71 79 82 78 49 44 42 38 38 47 52 59 67 82 91 103 107 108 106 104 100 97 104 106
11 4 4 16 11 3 4 4 10 9 6 13 9 14 18 34 23 46 56 51 61 74 80 75 58 67 36 0 7 23 45 52 61 67 80 92 97 100 102 100 98 89 100 102
25 11 15 15 16 5 9 4 10 6 8 20 22 39 56 35 25 30 54 78 70 70 71 72 75 64 56 40 17 18 20 35 49 53 68 81 87 89 92 94 96 91 92 102
17 13 17 33 32 8 20 28 30 25 32 20 34 29 50 44 40 32 56 73 73 72 70 72 74 78 57 42 33 26 24 23 31 45 54 68 74 79 83 89 92 90 87 95
10 10 18 20 19 19 26 39 40 35 34 29 40 39 42 55 54 40 38 55 70 84 70 72 77 81 66 48 45 28 27 25 25 30 42 53 63 70 77 81 87 88 85 87
10 9 12 25 13 13 10 53 33 34 30 17 24 34 38 47 32 40 39 46 61 83 92 75 79 87 82 67 65 49 38 35 41 45 43 45 54 65 72 75 82 83 83 83
12 15 8 9 6 12 33 4 15 26 29 21 31 37 35 44 41 36 46 53 50 62 72 79 74 79 87 78 58 54 55 51 47 50 54 52 53 59 65 71 77 79 80 83
33 14 8 8 16 13 29 33 12 13 22 30 19 25 31 37 34 23 52 48 63 73 75 79 94 74 75 68 58 64 60 57 56 64 64 61 56 58 62 68 75 79 78 81
33 33 20 7 10 21 45 43 22 9 13 44 19 16 16 14 21 20 73 53 71 77 66 73 88 67 71 78 79 81 82 78 84 74 66 60 59 62 64 64 67 75 77 78
9 18 34 27 20 14 35 13 18 10 37 8 21 22 24 17 26 56 77 68 54 65 86 84 87 86 69 56 57 65 65 69 63 61 62 62 61 64 64 61 63 67 76 74
18 14 11 13 17 29 33 9 19 38 29 30 27 32 39 52 57 63 67 62 70 72 89 89 89 94 74 56 53 67 73 68 63 63 64 64 64 64 64 62 61 64 70 72
7 17 11 16 13 10 32 40 64 56 47 46 47 63 51 61 59 61 66 63 72 75 94 89 91 96 75 61 50 64 75 73 72 71 68 64 62 61 63 63 62 64 67 71
7 7 12 17 23 22 38 50 59 76 55 65 69 73 67 63 60 68 67 76 78 82 95 88 92 93 81 58 43 54 54 58 61 64 66 64 63 63 64 63 63 64 68 71
11 12 10 12 27 28 49 64 85 76 64 69 69 63 77 72 70 74 76 77 70 80 84 97 93 88 78 58 48 49 50 54 57 56 58 59 59 61 63 63 63 64 64 68
9 11 9 19 35 31 41 72 57 43 59 73 75 82 82 63 72 71 78 69 68 87 98 100 94 78 74 55 48 51 41 45 53 58 59 57 58 59 59 59 59 57 54 54
Wind_Direction_850mb
197 214 219 199 208 233 228 252 247 237 218 295 246 269 239 254 267 261 265 254 254 252 255 260 266 257 242 237 230 229 226 227 222 220 221 225 227 229 230 231 228 225 224 228
219 240 231 244 237 245 251 260 261 278 251 242 274 274 256 224 244 258 265 265 259 262 262 261 264 261 242 237 232 230 229 227 226 224 225 225 228 229 233 234 230 228 226 227
225 233 189 223 243 238 241 238 257 251 269 237 272 278 274 256 235 253 259 260 264 265 265 262 258 258 256 240 233 231 230 229 228 228 224 222 226 226 230 234 230 230 228 228
250 247 247 251 234 217 254 221 244 252 234 253 195 278 235 261 256 238 248 259 256 259 260 259 260 257 257 250 239 235 233 229 229 227 218 221 219 219 227 233 233 230 229 229
234 343 1 248 256 221 251 302 256 244 241 222 242 251 306 220 270 266 257 260 264 266 265 265 264 259 254 254 247 240 236 229 227 225 224 224 219 225 229 229 233 234 232 230
255 292 299 243 298 295 319 311 302 236 175 243 245 198 271 247 249 263 263 262 268 265 274 291 275 264 260 251 250 243 233 231 228 227 226 227 227 227 222 231 232 236 233 229
304 313 293 260 284 287 267 272 282 256 206 243 174 194 248 278 274 246 262 266 275 284 268 291 274 282 251 245 245 239 235 233 229 229 229 229 231 231 227 226 228 231 233 231
102 323 41 321 2 328 304 222 230 211 224 260 171 227 238 227 261 254 263 275 286 289 293 279 289 264 266 265 245 237 237 234 231 232 232 231 233 233 233 228 228 230 233 235
156 260 275 224 171 192 328 233 251 253 269 277 233 274 288 287 279 274 283 295 301 299 305 302 300 297 268 271 260 247 239 237 238 238 237 234 233 233 234 234 234 233 235 236
230 289 229 269 258 235 205 344 298 216 239 245 235 253 250 312 310 295 286 301 309 312 317 322 308 298 272 261 256 255 245 240 242 240 237 236 235 236 236 238 234 234 236 237
145 143 273 332 207 215 206 238 251 332 262 241 252 257 239 220 261 289 305 315 325 332 336 324 308 286 286 278 257 249 247 242 240 239 239 237 236 234 235 237 237 237 238 237
204 168 221 231 256 256 243 241 163 188 344 292 268 269 279 9 344 337 321 321 320 319 321 340 318 289 270 260 251 245 240 238 243 242 242 241 239 237 234 236 236 237 239 241
190 260 348 329 326 136 146 206 143 123 202 268 294 278 320 328 317 318 315 315 316 315 312 314 312 314 302 232 304 266 252 247 245 243 242 241 239 236 236 237 237 238 238 241
185 178 176 218 223 86 303 241 287 262 239 267 257 279 293 299 293 303 307 306 304 300 304 309 305 304 305 270 293 306 281 255 248 243 243 243 242 240 240 240 240 240 238 240
167 223 218 240 249 248 266 275 273 243 241 243 263 255 274 286 294 296 288 288 294 300 299 305 308 302 318 267 286 299 293 271 259 246 241 242 243 243 242 240 241 240 242 239
195 233 224 259 248 235 257 263 252 260 257 256 257 268 262 276 288 280 277 287 299 296 292 301 305 301 294 284 282 289 299 286 272 267 257 248 245 243 241 240 239 239 243 239
202 208 198 248 176 216 332 251 243 248 251 241 264 267 275 281 283 289 298 296 285 285 290 295 300 295 290 277 290 270 290 288 288 279 268 261 250 247 243 240 238 240 239 240
199 210 180 205 117 202 239 214 216 225 245 239 243 256 272 278 299 319 315 292 300 306 304 307 307 291 292 288 269 265 271 275 277 286 277 268 257 249 245 240 239 238 239 238
209 199 216 198 211 291 291 270 169 180 275 247 245 256 269 281 294 296 306 294 293 301 314 313 319 294 282 278 275 277 269 269 273 276 273 266 261 253 247 240 238 236 238 238
212 219 223 168 207 208 247 272 206 156 268 261 205 224 257 279 298 303 301 309 305 310 310 308 316 324 294 278 264 272 271 269 268 271 267 268 268 257 248 244 239 237 236 239
194 210 222 221 233 263 253 160 146 138 250 143 204 252 283 280 281 287 297 308 304 303 303 309 313 315 310 295 277 273 276 267 263 267 264 259 260 258 251 247 242 239 237 236
171 170 205 223 234 245 248 94 195 246 262 260 254 275 278 279 287 281 290 295 296 297 304 309 310 312 313 298 273 271 269 266 263 259 262 257 252 252 246 244 243 238 237 232
207 195 195 186 215 231 248 228 252 259 253 255 275 286 280 282 277 276 286 294 294 296 303 307 308 309 310 299 278 270 259 261 261 253 255 254 251 247 243 243 239 234 234 231
258 175 222 227 239 241 252 264 264 266 259 273 278 284 283 275 280 280 286 293 293 295 302 306 307 304 304 302 293 277 261 252 252 250 249 247 245 242 241 239 237 234 233 230
197 158 205 249 258 261 258 256 259 265 272 277 277 277 283 278 276 281 285 287 289 298 300 299 301 298 297 298 294 283 258 250 250 246 243 242 242 242 238 235 236 234 237 239
166 184 211 247 253 241 260 267 272 274 277 278 278 282 280 275 278 281 286 284 285 291 294 295 295 291 289 289 287 285 266 251 247 245 243 241 239 235 232 231 231 232 238 242